Year,Month,Day,Hour,Minute,Value (Times are PST for temperature in C)
2013,03,26,00,00,4.30
2013,03,26,00,01,4.30
2013,03,26,00,02,4.30
2013,03,26,00,03,4.30
2013,03,26,00,04,4.30
2013,03,26,00,05,4.30
2013,03,26,00,06,4.30
2013,03,26,00,07,4.30
2013,03,26,00,08,4.30
2013,03,26,00,09,4.30
2013,03,26,00,10,4.30
2013,03,26,00,11,4.30
2013,03,26,00,12,4.30
2013,03,26,00,13,4.30
2013,03,26,00,14,4.30
2013,03,26,00,15,4.30
2013,03,26,00,16,4.30
2013,03,26,00,17,4.30
2013,03,26,00,18,4.30
2013,03,26,00,19,4.30
2013,03,26,00,20,4.30
2013,03,26,00,21,4.30
2013,03,26,00,22,4.30
2013,03,26,00,23,4.30
2013,03,26,00,24,4.30
2013,03,26,00,25,4.30
2013,03,26,00,26,4.30
2013,03,26,00,27,4.30
2013,03,26,00,28,4.30
2013,03,26,00,29,4.30
2013,03,26,00,30,4.30
2013,03,26,00,31,4.30
2013,03,26,00,32,4.40
2013,03,26,00,33,4.40
2013,03,26,00,34,4.40
2013,03,26,00,35,4.40
2013,03,26,00,36,4.40
2013,03,26,00,37,4.40
2013,03,26,00,38,4.40
2013,03,26,00,39,4.40
2013,03,26,00,40,4.40
2013,03,26,00,41,4.40
2013,03,26,00,42,4.40
2013,03,26,00,43,4.40
2013,03,26,00,44,4.40
2013,03,26,00,45,4.40
2013,03,26,00,46,4.40
2013,03,26,00,47,4.40
2013,03,26,00,48,4.40
2013,03,26,00,49,4.40
2013,03,26,00,50,4.40
2013,03,26,00,51,4.40
2013,03,26,00,52,4.40
2013,03,26,00,53,4.40
2013,03,26,00,54,4.40
2013,03,26,00,55,4.40
2013,03,26,00,56,4.40
2013,03,26,00,57,4.40
2013,03,26,00,58,4.40
2013,03,26,00,59,4.40
2013,03,26,01,00,4.40
2013,03,26,01,01,4.40
2013,03,26,01,02,4.40
2013,03,26,01,03,4.40
2013,03,26,01,04,4.40
2013,03,26,01,05,4.50
2013,03,26,01,06,4.50
2013,03,26,01,07,4.50
2013,03,26,01,08,4.50
2013,03,26,01,09,4.50
2013,03,26,01,10,4.50
2013,03,26,01,11,4.50
2013,03,26,01,12,4.50
2013,03,26,01,13,4.50
2013,03,26,01,14,4.50
2013,03,26,01,15,4.50
2013,03,26,01,16,4.50
2013,03,26,01,17,4.50
2013,03,26,01,18,4.60
2013,03,26,01,19,4.60
2013,03,26,01,20,4.60
2013,03,26,01,21,4.60
2013,03,26,01,22,4.60
2013,03,26,01,23,4.60
2013,03,26,01,24,4.60
2013,03,26,01,25,4.60
2013,03,26,01,26,4.60
2013,03,26,01,27,4.60
2013,03,26,01,28,4.60
2013,03,26,01,29,4.60
2013,03,26,01,30,4.60
2013,03,26,01,31,4.60
2013,03,26,01,32,4.60
2013,03,26,01,33,4.60
2013,03,26,01,34,4.60
2013,03,26,01,35,4.60
2013,03,26,01,36,4.60
2013,03,26,01,37,4.60
2013,03,26,01,38,4.60
2013,03,26,01,39,4.60
2013,03,26,01,40,4.60
2013,03,26,01,41,4.60
2013,03,26,01,42,4.60
2013,03,26,01,43,4.60
2013,03,26,01,44,4.60
2013,03,26,01,45,4.60
2013,03,26,01,46,4.60
2013,03,26,01,47,4.60
2013,03,26,01,48,4.60
2013,03,26,01,49,4.60
2013,03,26,01,50,4.60
2013,03,26,01,51,4.60
2013,03,26,01,52,4.60
2013,03,26,01,53,4.60
2013,03,26,01,54,4.60
2013,03,26,01,55,4.60
2013,03,26,01,56,4.60
2013,03,26,01,57,4.60
2013,03,26,01,58,4.60
2013,03,26,01,59,4.60
2013,03,26,02,00,4.50
2013,03,26,02,01,4.50
2013,03,26,02,02,4.50
2013,03,26,02,03,4.50
2013,03,26,02,04,4.50
2013,03,26,02,05,4.50
2013,03,26,02,06,4.40
2013,03,26,02,07,4.40
2013,03,26,02,08,4.40
2013,03,26,02,09,4.40
2013,03,26,02,10,4.50
2013,03,26,02,11,4.50
2013,03,26,02,12,4.50
2013,03,26,02,13,4.50
2013,03,26,02,14,4.50
2013,03,26,02,15,4.50
2013,03,26,02,16,4.50
2013,03,26,02,17,4.50
2013,03,26,02,18,4.50
2013,03,26,02,19,4.60
2013,03,26,02,20,4.60
2013,03,26,02,21,4.60
2013,03,26,02,22,4.60
2013,03,26,02,23,4.60
2013,03,26,02,24,4.60
2013,03,26,02,25,4.60
2013,03,26,02,26,4.60
2013,03,26,02,27,4.60
2013,03,26,02,28,4.70
2013,03,26,02,29,4.70
2013,03,26,02,30,4.70
2013,03,26,02,31,4.70
2013,03,26,02,32,4.70
2013,03,26,02,33,4.70
2013,03,26,02,34,4.70
2013,03,26,02,35,4.70
2013,03,26,02,36,4.70
2013,03,26,02,37,4.70
2013,03,26,02,38,4.80
2013,03,26,02,39,4.70
2013,03,26,02,40,4.70
2013,03,26,02,41,4.80
2013,03,26,02,42,4.70
2013,03,26,02,43,4.70
2013,03,26,02,44,4.70
2013,03,26,02,45,4.70
2013,03,26,02,46,4.70
2013,03,26,02,47,4.80
2013,03,26,02,48,4.70
2013,03,26,02,49,4.70
2013,03,26,02,50,4.70
2013,03,26,02,51,4.70
2013,03,26,02,52,4.70
2013,03,26,02,53,4.70
2013,03,26,02,54,4.70
2013,03,26,02,55,4.70
2013,03,26,02,56,4.70
2013,03,26,02,57,4.70
2013,03,26,02,58,4.70
2013,03,26,02,59,4.70
2013,03,26,03,00,4.70
2013,03,26,03,01,4.70
2013,03,26,03,02,4.70
2013,03,26,03,03,4.70
2013,03,26,03,04,4.70
2013,03,26,03,05,4.70
2013,03,26,03,06,4.70
2013,03,26,03,07,4.70
2013,03,26,03,08,4.70
2013,03,26,03,09,4.70
2013,03,26,03,10,4.70
2013,03,26,03,11,4.70
2013,03,26,03,12,4.70
2013,03,26,03,13,4.70
2013,03,26,03,14,4.70
2013,03,26,03,15,4.70
2013,03,26,03,16,4.70
2013,03,26,03,17,4.70
2013,03,26,03,18,4.70
2013,03,26,03,19,4.70
2013,03,26,03,20,4.70
2013,03,26,03,21,4.70
2013,03,26,03,22,4.70
2013,03,26,03,23,4.70
2013,03,26,03,24,4.70
2013,03,26,03,25,4.70
2013,03,26,03,26,4.70
2013,03,26,03,27,4.70
2013,03,26,03,28,4.70
2013,03,26,03,29,4.70
2013,03,26,03,30,4.70
2013,03,26,03,31,4.70
2013,03,26,03,32,4.70
2013,03,26,03,33,4.70
2013,03,26,03,34,4.60
2013,03,26,03,35,4.60
2013,03,26,03,36,4.60
2013,03,26,03,37,4.60
2013,03,26,03,38,4.60
2013,03,26,03,39,4.60
2013,03,26,03,40,4.60
2013,03,26,03,41,4.60
2013,03,26,03,42,4.60
2013,03,26,03,43,4.60
2013,03,26,03,44,4.60
2013,03,26,03,45,4.60
2013,03,26,03,46,4.60
2013,03,26,03,47,4.60
2013,03,26,03,48,4.60
2013,03,26,03,49,4.60
2013,03,26,03,50,4.60
2013,03,26,03,51,4.60
2013,03,26,03,52,4.60
2013,03,26,03,53,4.50
2013,03,26,03,54,4.50
2013,03,26,03,55,4.50
2013,03,26,03,56,4.50
2013,03,26,03,57,4.50
2013,03,26,03,58,4.50
2013,03,26,03,59,4.50
2013,03,26,04,00,4.50
2013,03,26,04,01,4.50
2013,03,26,04,02,4.50
2013,03,26,04,03,4.50
2013,03,26,04,04,4.50
2013,03,26,04,05,4.50
2013,03,26,04,06,4.50
2013,03,26,04,07,4.50
2013,03,26,04,08,4.50
2013,03,26,04,09,4.50
2013,03,26,04,10,4.50
2013,03,26,04,11,4.50
2013,03,26,04,12,4.50
2013,03,26,04,13,4.50
2013,03,26,04,14,4.50
2013,03,26,04,15,4.50
2013,03,26,04,16,4.50
2013,03,26,04,17,4.40
2013,03,26,04,18,4.40
2013,03,26,04,19,4.40
2013,03,26,04,20,4.40
2013,03,26,04,21,4.40
2013,03,26,04,22,4.40
2013,03,26,04,23,4.40
2013,03,26,04,24,4.40
2013,03,26,04,25,4.40
2013,03,26,04,26,4.40
2013,03,26,04,27,4.40
2013,03,26,04,28,4.40
2013,03,26,04,29,4.40
2013,03,26,04,30,4.40
2013,03,26,04,31,4.40
2013,03,26,04,32,4.30
2013,03,26,04,33,4.30
2013,03,26,04,34,4.30
2013,03,26,04,35,4.30
2013,03,26,04,36,4.30
2013,03,26,04,37,4.30
2013,03,26,04,38,4.30
2013,03,26,04,39,4.30
2013,03,26,04,40,4.30
2013,03,26,04,41,4.30
2013,03,26,04,42,4.30
2013,03,26,04,43,4.30
2013,03,26,04,44,4.30
2013,03,26,04,45,4.30
2013,03,26,04,46,4.20
2013,03,26,04,47,4.20
2013,03,26,04,48,4.20
2013,03,26,04,49,4.20
2013,03,26,04,50,4.20
2013,03,26,04,51,4.20
2013,03,26,04,52,4.20
2013,03,26,04,53,4.20
2013,03,26,04,54,4.20
2013,03,26,04,55,4.20
2013,03,26,04,56,4.20
2013,03,26,04,57,4.20
2013,03,26,04,58,4.10
2013,03,26,04,59,4.10
2013,03,26,05,00,4.10
2013,03,26,05,01,4.10
2013,03,26,05,02,4.10
2013,03,26,05,03,4.10
2013,03,26,05,04,4.10
2013,03,26,05,05,4.10
2013,03,26,05,06,4.10
2013,03,26,05,07,4.10
2013,03,26,05,08,4.10
2013,03,26,05,09,4.10
2013,03,26,05,10,4.10
2013,03,26,05,11,4.10
2013,03,26,05,12,4.10
2013,03,26,05,13,4.10
2013,03,26,05,14,4.10
2013,03,26,05,15,4.10
2013,03,26,05,16,4.10
2013,03,26,05,17,4.10
2013,03,26,05,18,4.00
2013,03,26,05,19,4.00
2013,03,26,05,20,4.00
2013,03,26,05,21,4.00
2013,03,26,05,22,4.00
2013,03,26,05,23,4.00
2013,03,26,05,24,4.00
2013,03,26,05,25,4.00
2013,03,26,05,26,4.00
2013,03,26,05,27,3.90
2013,03,26,05,28,3.90
2013,03,26,05,29,3.90
2013,03,26,05,30,3.90
2013,03,26,05,31,3.90
2013,03,26,05,32,3.90
2013,03,26,05,33,3.90
2013,03,26,05,34,3.90
2013,03,26,05,35,3.90
2013,03,26,05,36,3.90
2013,03,26,05,37,3.90
2013,03,26,05,38,3.90
2013,03,26,05,39,3.90
2013,03,26,05,40,3.90
2013,03,26,05,41,3.90
2013,03,26,05,42,3.90
2013,03,26,05,43,3.90
2013,03,26,05,44,3.90
2013,03,26,05,45,3.90
2013,03,26,05,46,3.80
2013,03,26,05,47,3.90
2013,03,26,05,48,3.90
2013,03,26,05,49,3.90
2013,03,26,05,50,3.90
2013,03,26,05,51,3.90
2013,03,26,05,52,3.90
2013,03,26,05,53,3.90
2013,03,26,05,54,3.90
2013,03,26,05,55,3.90
2013,03,26,05,56,3.90
2013,03,26,05,57,3.90
2013,03,26,05,58,3.90
2013,03,26,05,59,3.90
2013,03,26,06,00,3.90
2013,03,26,06,01,3.90
2013,03,26,06,02,3.90
2013,03,26,06,03,3.90
2013,03,26,06,04,3.90
2013,03,26,06,05,3.90
2013,03,26,06,06,3.90
2013,03,26,06,07,3.90
2013,03,26,06,08,3.90
2013,03,26,06,09,3.90
2013,03,26,06,10,3.90
2013,03,26,06,11,3.80
2013,03,26,06,12,3.80
2013,03,26,06,13,3.80
2013,03,26,06,14,3.80
2013,03,26,06,15,3.80
2013,03,26,06,16,3.80
2013,03,26,06,17,3.80
2013,03,26,06,18,3.80
2013,03,26,06,19,3.80
2013,03,26,06,20,3.80
2013,03,26,06,21,3.80
2013,03,26,06,22,3.80
2013,03,26,06,23,3.80
2013,03,26,06,24,3.80
2013,03,26,06,25,3.80
2013,03,26,06,26,3.80
2013,03,26,06,27,3.80
2013,03,26,06,28,3.80
2013,03,26,06,29,3.80
2013,03,26,06,30,3.90
2013,03,26,06,31,3.90
2013,03,26,06,32,3.90
2013,03,26,06,33,3.90
2013,03,26,06,34,3.90
2013,03,26,06,35,3.90
2013,03,26,06,36,3.90
2013,03,26,06,37,3.90
2013,03,26,06,38,3.90
2013,03,26,06,39,3.90
2013,03,26,06,40,3.90
2013,03,26,06,41,3.90
2013,03,26,06,42,3.90
2013,03,26,06,43,3.90
2013,03,26,06,44,3.90
2013,03,26,06,45,3.90
2013,03,26,06,46,3.90
2013,03,26,06,47,3.90
2013,03,26,06,48,3.90
2013,03,26,06,49,3.90
2013,03,26,06,50,3.90
2013,03,26,06,51,4.00
2013,03,26,06,52,4.00
2013,03,26,06,53,4.00
2013,03,26,06,54,4.00
2013,03,26,06,55,4.00
2013,03,26,06,56,4.00
2013,03,26,06,57,4.00
2013,03,26,06,58,4.00
2013,03,26,06,59,4.00
2013,03,26,07,00,4.00
2013,03,26,07,01,4.00
2013,03,26,07,02,4.00
2013,03,26,07,03,4.00
2013,03,26,07,04,4.00
2013,03,26,07,05,4.00
2013,03,26,07,06,4.00
2013,03,26,07,07,4.00
2013,03,26,07,08,4.00
2013,03,26,07,09,4.00
2013,03,26,07,10,3.90
2013,03,26,07,11,3.90
2013,03,26,07,12,3.90
2013,03,26,07,13,3.90
2013,03,26,07,14,3.90
2013,03,26,07,15,4.00
2013,03,26,07,16,4.00
2013,03,26,07,17,3.90
2013,03,26,07,18,4.00
2013,03,26,07,19,4.00
2013,03,26,07,20,4.00
2013,03,26,07,21,4.00
2013,03,26,07,22,4.00
2013,03,26,07,23,4.00
2013,03,26,07,24,4.00
2013,03,26,07,25,4.00
2013,03,26,07,26,4.00
2013,03,26,07,27,4.00
2013,03,26,07,28,4.00
2013,03,26,07,29,4.00
2013,03,26,07,30,4.00
2013,03,26,07,31,4.00
2013,03,26,07,32,4.00
2013,03,26,07,33,4.10
2013,03,26,07,34,4.10
2013,03,26,07,35,4.10
2013,03,26,07,36,4.10
2013,03,26,07,37,4.10
2013,03,26,07,38,4.10
2013,03,26,07,39,4.10
2013,03,26,07,40,4.10
2013,03,26,07,41,4.10
2013,03,26,07,42,4.10
2013,03,26,07,43,4.10
2013,03,26,07,44,4.10
2013,03,26,07,45,4.10
2013,03,26,07,46,4.10
2013,03,26,07,47,4.10
2013,03,26,07,48,4.10
2013,03,26,07,49,4.10
2013,03,26,07,50,4.10
2013,03,26,07,51,4.10
2013,03,26,07,52,4.10
2013,03,26,07,53,4.10
2013,03,26,07,54,4.20
2013,03,26,07,55,4.20
2013,03,26,07,56,4.20
2013,03,26,07,57,4.20
2013,03,26,07,58,4.20
2013,03,26,07,59,4.20
2013,03,26,08,00,4.20
2013,03,26,08,01,4.20
2013,03,26,08,02,4.20
2013,03,26,08,03,4.30
2013,03,26,08,04,4.30
2013,03,26,08,05,4.30
2013,03,26,08,06,4.30
2013,03,26,08,07,4.30
2013,03,26,08,08,4.30
2013,03,26,08,09,4.30
2013,03,26,08,10,4.40
2013,03,26,08,11,4.40
2013,03,26,08,12,4.40
2013,03,26,08,13,4.50
2013,03,26,08,14,4.50
2013,03,26,08,15,4.50
2013,03,26,08,16,4.60
2013,03,26,08,17,4.60
2013,03,26,08,18,4.60
2013,03,26,08,19,4.70
2013,03,26,08,20,4.70
2013,03,26,08,21,4.80
2013,03,26,08,22,4.80
2013,03,26,08,23,4.80
2013,03,26,08,24,4.90
2013,03,26,08,25,4.90
2013,03,26,08,26,5.00
2013,03,26,08,27,5.00
2013,03,26,08,28,5.10
2013,03,26,08,29,5.10
2013,03,26,08,30,5.10
2013,03,26,08,31,5.20
2013,03,26,08,32,5.20
2013,03,26,08,33,5.20
2013,03,26,08,34,5.20
2013,03,26,08,35,5.30
2013,03,26,08,36,5.30
2013,03,26,08,37,5.40
2013,03,26,08,38,5.40
2013,03,26,08,39,5.50
2013,03,26,08,40,5.60
2013,03,26,08,41,5.60
2013,03,26,08,42,5.70
2013,03,26,08,43,5.70
2013,03,26,08,44,5.70
2013,03,26,08,45,5.80
2013,03,26,08,46,5.80
2013,03,26,08,47,5.90
2013,03,26,08,48,5.90
2013,03,26,08,49,6.00
2013,03,26,08,50,6.00
2013,03,26,08,51,6.10
2013,03,26,08,52,6.10
2013,03,26,08,53,6.20
2013,03,26,08,54,6.20
2013,03,26,08,55,6.30
2013,03,26,08,56,6.30
2013,03,26,08,57,6.30
2013,03,26,08,58,6.30
2013,03,26,08,59,6.40
2013,03,26,09,00,6.40
2013,03,26,09,01,6.50
2013,03,26,09,02,6.50
2013,03,26,09,03,6.60
2013,03,26,09,04,6.60
2013,03,26,09,05,6.70
2013,03,26,09,06,6.80
2013,03,26,09,07,6.80
2013,03,26,09,08,6.80
2013,03,26,09,09,6.90
2013,03,26,09,10,6.90
2013,03,26,09,11,7.00
2013,03,26,09,12,7.00
2013,03,26,09,13,7.10
2013,03,26,09,14,7.10
2013,03,26,09,15,7.10
2013,03,26,09,16,7.10
2013,03,26,09,17,7.10
2013,03,26,09,18,7.10
2013,03,26,09,19,7.10
2013,03,26,09,20,7.10
2013,03,26,09,21,7.10
2013,03,26,09,22,7.10
2013,03,26,09,23,7.10
2013,03,26,09,24,7.10
2013,03,26,09,25,7.10
2013,03,26,09,26,7.20
2013,03,26,09,27,7.20
2013,03,26,09,28,7.20
2013,03,26,09,29,7.20
2013,03,26,09,30,7.20
2013,03,26,09,31,7.20
2013,03,26,09,32,7.20
2013,03,26,09,33,7.20
2013,03,26,09,34,7.20
2013,03,26,09,35,7.20
2013,03,26,09,36,7.20
2013,03,26,09,37,7.30
2013,03,26,09,38,7.30
2013,03,26,09,39,7.30
2013,03,26,09,40,7.30
2013,03,26,09,41,7.30
2013,03,26,09,42,7.40
2013,03,26,09,43,7.40
2013,03,26,09,44,7.40
2013,03,26,09,45,7.50
2013,03,26,09,46,7.50
2013,03,26,09,47,7.60
2013,03,26,09,48,7.60
2013,03,26,09,49,7.60
2013,03,26,09,50,7.70
2013,03,26,09,51,7.70
2013,03,26,09,52,7.70
2013,03,26,09,53,7.70
2013,03,26,09,54,7.70
2013,03,26,09,55,7.80
2013,03,26,09,56,7.80
2013,03,26,09,57,7.80
2013,03,26,09,58,7.80
2013,03,26,09,59,7.90
2013,03,26,10,00,7.90
2013,03,26,10,01,7.90
2013,03,26,10,02,8.00
2013,03,26,10,03,8.00
2013,03,26,10,04,8.10
2013,03,26,10,05,8.10
2013,03,26,10,06,8.10
2013,03,26,10,07,8.20
2013,03,26,10,08,8.20
2013,03,26,10,09,8.20
2013,03,26,10,10,8.20
2013,03,26,10,11,8.30
2013,03,26,10,12,8.30
2013,03,26,10,13,8.30
2013,03,26,10,14,8.40
2013,03,26,10,15,8.40
2013,03,26,10,16,8.40
2013,03,26,10,17,8.50
2013,03,26,10,18,8.50
2013,03,26,10,19,8.50
2013,03,26,10,20,8.60
2013,03,26,10,21,8.60
2013,03,26,10,22,8.60
2013,03,26,10,23,8.60
2013,03,26,10,24,8.60
2013,03,26,10,25,8.60
2013,03,26,10,26,8.60
2013,03,26,10,27,8.70
2013,03,26,10,28,8.70
2013,03,26,10,29,8.70
2013,03,26,10,30,8.70
2013,03,26,10,31,8.70
2013,03,26,10,32,8.70
2013,03,26,10,33,8.70
2013,03,26,10,34,8.70
2013,03,26,10,35,8.70
2013,03,26,10,36,8.70
2013,03,26,10,37,8.70
2013,03,26,10,38,8.70
2013,03,26,10,39,8.80
2013,03,26,10,40,8.80
2013,03,26,10,41,8.80
2013,03,26,10,42,8.80
2013,03,26,10,43,8.90
2013,03,26,10,44,8.90
2013,03,26,10,45,8.90
2013,03,26,10,46,9.00
2013,03,26,10,47,9.00
2013,03,26,10,48,9.10
2013,03,26,10,49,9.10
2013,03,26,10,50,9.10
2013,03,26,10,51,9.10
2013,03,26,10,52,9.10
2013,03,26,10,53,9.10
2013,03,26,10,54,9.00
2013,03,26,10,55,9.00
2013,03,26,10,56,9.00
2013,03,26,10,57,8.90
2013,03,26,10,58,9.00
2013,03,26,10,59,8.90
2013,03,26,11,00,8.90
2013,03,26,11,01,8.90
2013,03,26,11,02,8.90
2013,03,26,11,03,9.00
2013,03,26,11,04,9.00
2013,03,26,11,05,9.00
2013,03,26,11,06,9.00
2013,03,26,11,07,9.00
2013,03,26,11,08,9.00
2013,03,26,11,09,9.00
2013,03,26,11,10,9.00
2013,03,26,11,11,9.00
2013,03,26,11,12,9.10
2013,03,26,11,13,9.10
2013,03,26,11,14,9.10
2013,03,26,11,15,9.10
2013,03,26,11,16,9.20
2013,03,26,11,17,9.20
2013,03,26,11,18,9.20
2013,03,26,11,19,9.30
2013,03,26,11,20,9.30
2013,03,26,11,21,9.30
2013,03,26,11,22,9.30
2013,03,26,11,23,9.40
2013,03,26,11,24,9.40
2013,03,26,11,25,9.50
2013,03,26,11,26,9.50
2013,03,26,11,27,9.60
2013,03,26,11,28,9.60
2013,03,26,11,29,9.60
2013,03,26,11,30,9.70
2013,03,26,11,31,9.80
2013,03,26,11,32,9.80
2013,03,26,11,33,9.80
2013,03,26,11,34,9.90
2013,03,26,11,35,9.90
2013,03,26,11,36,9.90
2013,03,26,11,37,10.00
2013,03,26,11,38,10.00
2013,03,26,11,39,10.00
2013,03,26,11,40,10.10
2013,03,26,11,41,10.10
2013,03,26,11,42,10.10
2013,03,26,11,43,10.20
2013,03,26,11,44,10.20
2013,03,26,11,45,10.30
2013,03,26,11,46,10.30
2013,03,26,11,47,10.30
2013,03,26,11,48,10.30
2013,03,26,11,49,10.30
2013,03,26,11,50,10.30
2013,03,26,11,51,10.30
2013,03,26,11,52,10.30
2013,03,26,11,53,10.30
2013,03,26,11,54,10.40
2013,03,26,11,55,10.40
2013,03,26,11,56,10.40
2013,03,26,11,57,10.40
2013,03,26,11,58,10.40
2013,03,26,11,59,10.40
2013,03,26,12,00,10.40
2013,03,26,12,01,10.40
2013,03,26,12,02,10.40
2013,03,26,12,03,10.40
2013,03,26,12,04,10.40
2013,03,26,12,05,10.30
2013,03,26,12,06,10.30
2013,03,26,12,07,10.30
2013,03,26,12,08,10.30
2013,03,26,12,09,10.30
2013,03,26,12,10,10.30
2013,03,26,12,11,10.30
2013,03,26,12,12,10.30
2013,03,26,12,13,10.30
2013,03,26,12,14,10.40
2013,03,26,12,15,10.40
2013,03,26,12,16,10.40
2013,03,26,12,17,10.40
2013,03,26,12,18,10.40
2013,03,26,12,19,10.40
2013,03,26,12,20,10.30
2013,03,26,12,21,10.30
2013,03,26,12,22,10.30
2013,03,26,12,23,10.30
2013,03,26,12,24,10.30
2013,03,26,12,25,10.30
2013,03,26,12,26,10.30
2013,03,26,12,27,10.30
2013,03,26,12,28,10.30
2013,03,26,12,29,10.30
2013,03,26,12,30,10.30
2013,03,26,12,31,10.30
2013,03,26,12,32,10.30
2013,03,26,12,33,10.30
2013,03,26,12,34,10.30
2013,03,26,12,35,10.30
2013,03,26,12,36,10.30
2013,03,26,12,37,10.40
2013,03,26,12,38,10.50
2013,03,26,12,39,10.50
2013,03,26,12,40,10.60
2013,03,26,12,41,10.60
2013,03,26,12,42,10.60
2013,03,26,12,43,10.70
2013,03,26,12,44,10.70
2013,03,26,12,45,10.80
2013,03,26,12,46,10.80
2013,03,26,12,47,10.90
2013,03,26,12,48,10.90
2013,03,26,12,49,10.90
2013,03,26,12,50,11.00
2013,03,26,12,51,11.00
2013,03,26,12,52,11.10
2013,03,26,12,53,11.10
2013,03,26,12,54,11.10
2013,03,26,12,55,11.20
2013,03,26,12,56,11.20
2013,03,26,12,57,11.20
2013,03,26,12,58,11.20
2013,03,26,12,59,11.20
2013,03,26,13,00,11.20
2013,03,26,13,01,11.20
2013,03,26,13,02,11.20
2013,03,26,13,03,11.20
2013,03,26,13,04,11.10
2013,03,26,13,05,11.10
2013,03,26,13,06,11.10
2013,03,26,13,07,11.10
2013,03,26,13,08,11.10
2013,03,26,13,09,11.10
2013,03,26,13,10,11.10
2013,03,26,13,11,11.10
2013,03,26,13,12,11.20
2013,03,26,13,13,11.20
2013,03,26,13,14,11.20
2013,03,26,13,15,11.20
2013,03,26,13,16,11.20
2013,03,26,13,17,11.30
2013,03,26,13,18,11.30
2013,03,26,13,19,11.40
2013,03,26,13,20,11.40
2013,03,26,13,21,11.40
2013,03,26,13,22,11.50
2013,03,26,13,23,11.50
2013,03,26,13,24,11.60
2013,03,26,13,25,11.60
2013,03,26,13,26,11.70
2013,03,26,13,27,11.70
2013,03,26,13,28,11.70
2013,03,26,13,29,11.70
2013,03,26,13,30,11.80
2013,03,26,13,31,11.80
2013,03,26,13,32,11.80
2013,03,26,13,33,11.80
2013,03,26,13,34,11.80
2013,03,26,13,35,11.80
2013,03,26,13,36,11.80
2013,03,26,13,37,11.80
2013,03,26,13,38,11.80
2013,03,26,13,39,11.80
2013,03,26,13,40,11.80
2013,03,26,13,41,11.80
2013,03,26,13,42,11.90
2013,03,26,13,43,11.90
2013,03,26,13,44,12.00
2013,03,26,13,45,12.10
2013,03,26,13,46,12.10
2013,03,26,13,47,12.10
2013,03,26,13,48,12.20
2013,03,26,13,49,12.20
2013,03,26,13,50,12.10
2013,03,26,13,51,12.10
2013,03,26,13,52,12.10
2013,03,26,13,53,12.10
2013,03,26,13,54,12.10
2013,03,26,13,55,12.10
2013,03,26,13,56,12.10
2013,03,26,13,57,12.20
2013,03,26,13,58,12.20
2013,03,26,13,59,12.20
2013,03,26,14,00,12.30
2013,03,26,14,01,12.30
2013,03,26,14,02,12.40
2013,03,26,14,03,12.40
2013,03,26,14,04,12.40
2013,03,26,14,05,12.50
2013,03,26,14,06,12.50
2013,03,26,14,07,12.50
2013,03,26,14,08,12.40
2013,03,26,14,09,12.40
2013,03,26,14,10,12.40
2013,03,26,14,11,12.40
2013,03,26,14,12,12.40
2013,03,26,14,13,12.40
2013,03,26,14,14,12.50
2013,03,26,14,15,12.50
2013,03,26,14,16,12.60
2013,03,26,14,17,12.60
2013,03,26,14,18,12.60
2013,03,26,14,19,12.60
2013,03,26,14,20,12.50
2013,03,26,14,21,12.50
2013,03,26,14,22,12.50
2013,03,26,14,23,12.60
2013,03,26,14,24,12.60
2013,03,26,14,25,12.60
2013,03,26,14,26,12.60
2013,03,26,14,27,12.60
2013,03,26,14,28,12.70
2013,03,26,14,29,12.70
2013,03,26,14,30,12.80
2013,03,26,14,31,12.80
2013,03,26,14,32,12.80
2013,03,26,14,33,12.70
2013,03,26,14,34,12.70
2013,03,26,14,35,12.60
2013,03,26,14,36,12.60
2013,03,26,14,37,12.60
2013,03,26,14,38,12.60
2013,03,26,14,39,12.60
2013,03,26,14,40,12.60
2013,03,26,14,41,12.70
2013,03,26,14,42,12.70
2013,03,26,14,43,12.70
2013,03,26,14,44,12.70
2013,03,26,14,45,12.80
2013,03,26,14,46,12.80
2013,03,26,14,47,12.80
2013,03,26,14,48,12.80
2013,03,26,14,49,12.90
2013,03,26,14,50,12.90
2013,03,26,14,51,12.90
2013,03,26,14,52,12.90
2013,03,26,14,53,12.90
2013,03,26,14,54,12.90
2013,03,26,14,55,12.90
2013,03,26,14,56,13.00
2013,03,26,14,57,13.00
2013,03,26,14,58,13.00
2013,03,26,14,59,13.00
2013,03,26,15,00,13.00
2013,03,26,15,01,13.00
2013,03,26,15,02,13.10
2013,03,26,15,03,13.10
2013,03,26,15,04,13.10
2013,03,26,15,05,13.10
2013,03,26,15,06,13.00
2013,03,26,15,07,13.10
2013,03,26,15,08,13.10
2013,03,26,15,09,13.10
2013,03,26,15,10,13.10
2013,03,26,15,11,13.10
2013,03,26,15,12,13.10
2013,03,26,15,13,13.10
2013,03,26,15,14,13.10
2013,03,26,15,15,13.10
2013,03,26,15,16,13.10
2013,03,26,15,17,13.10
2013,03,26,15,18,13.10
2013,03,26,15,19,13.20
2013,03,26,15,20,13.20
2013,03,26,15,21,13.30
2013,03,26,15,22,13.30
2013,03,26,15,23,13.30
2013,03,26,15,24,13.30
2013,03,26,15,25,13.40
2013,03,26,15,26,13.40
2013,03,26,15,27,13.40
2013,03,26,15,28,13.40
2013,03,26,15,29,13.40
2013,03,26,15,30,13.40
2013,03,26,15,31,13.40
2013,03,26,15,32,13.50
2013,03,26,15,33,13.50
2013,03,26,15,34,13.60
2013,03,26,15,35,13.60
2013,03,26,15,36,13.60
2013,03,26,15,37,13.60
2013,03,26,15,38,13.60
2013,03,26,15,39,13.70
2013,03,26,15,40,13.70
2013,03,26,15,41,13.60
2013,03,26,15,42,13.60
2013,03,26,15,43,13.60
2013,03,26,15,44,13.50
2013,03,26,15,45,13.50
2013,03,26,15,46,13.50
2013,03,26,15,47,13.60
2013,03,26,15,48,13.60
2013,03,26,15,49,13.60
2013,03,26,15,50,13.70
2013,03,26,15,51,13.70
2013,03,26,15,52,13.80
2013,03,26,15,53,13.80
2013,03,26,15,54,13.80
2013,03,26,15,55,13.80
2013,03,26,15,56,13.80
2013,03,26,15,57,13.80
2013,03,26,15,58,13.80
2013,03,26,15,59,13.80
2013,03,26,16,00,13.80
2013,03,26,16,01,13.70
2013,03,26,16,02,13.70
2013,03,26,16,03,13.70
2013,03,26,16,04,13.70
2013,03,26,16,05,13.70
2013,03,26,16,06,13.70
2013,03,26,16,07,13.70
2013,03,26,16,08,13.70
2013,03,26,16,09,13.70
2013,03,26,16,10,13.70
2013,03,26,16,11,13.60
2013,03,26,16,12,13.60
2013,03,26,16,13,13.60
2013,03,26,16,14,13.60
2013,03,26,16,15,13.60
2013,03,26,16,16,13.70
2013,03,26,16,17,13.70
2013,03,26,16,18,13.70
2013,03,26,16,19,13.70
2013,03,26,16,20,13.70
2013,03,26,16,21,13.70
2013,03,26,16,22,13.70
2013,03,26,16,23,13.70
2013,03,26,16,24,13.80
2013,03,26,16,25,13.80
2013,03,26,16,26,13.80
2013,03,26,16,27,13.80
2013,03,26,16,28,13.80
2013,03,26,16,29,13.80
2013,03,26,16,30,13.80
2013,03,26,16,31,13.70
2013,03,26,16,32,13.70
2013,03,26,16,33,13.70
2013,03,26,16,34,13.70
2013,03,26,16,35,13.70
2013,03,26,16,36,13.70
2013,03,26,16,37,13.60
2013,03,26,16,38,13.60
2013,03,26,16,39,13.60
2013,03,26,16,40,13.60
2013,03,26,16,41,13.60
2013,03,26,16,42,13.60
2013,03,26,16,43,13.60
2013,03,26,16,44,13.60
2013,03,26,16,45,13.60
2013,03,26,16,46,13.50
2013,03,26,16,47,13.50
2013,03,26,16,48,13.50
2013,03,26,16,49,13.50
2013,03,26,16,50,13.50
2013,03,26,16,51,13.50
2013,03,26,16,52,13.50
2013,03,26,16,53,13.40
2013,03,26,16,54,13.40
2013,03,26,16,55,13.40
2013,03,26,16,56,13.30
2013,03,26,16,57,13.30
2013,03,26,16,58,13.30
2013,03,26,16,59,13.30
2013,03,26,17,00,13.30
2013,03,26,17,01,13.30
2013,03,26,17,02,13.30
2013,03,26,17,03,13.20
2013,03,26,17,04,13.20
2013,03,26,17,05,13.20
2013,03,26,17,06,13.20
2013,03,26,17,07,13.10
2013,03,26,17,08,13.10
2013,03,26,17,09,13.10
2013,03,26,17,10,13.10
2013,03,26,17,11,13.10
2013,03,26,17,12,13.10
2013,03,26,17,13,13.10
2013,03,26,17,14,13.10
2013,03,26,17,15,13.10
2013,03,26,17,16,13.10
2013,03,26,17,17,13.10
2013,03,26,17,18,13.10
2013,03,26,17,19,13.10
2013,03,26,17,20,13.10
2013,03,26,17,21,13.10
2013,03,26,17,22,13.10
2013,03,26,17,23,13.10
2013,03,26,17,24,13.10
2013,03,26,17,25,13.10
2013,03,26,17,26,13.10
2013,03,26,17,27,13.10
2013,03,26,17,28,13.10
2013,03,26,17,29,13.00
2013,03,26,17,30,13.00
2013,03,26,17,31,13.00
2013,03,26,17,32,13.00
2013,03,26,17,33,13.00
2013,03,26,17,34,13.00
2013,03,26,17,35,13.00
2013,03,26,17,36,12.90
2013,03,26,17,37,12.90
2013,03,26,17,38,12.90
2013,03,26,17,39,12.90
2013,03,26,17,40,12.90
2013,03,26,17,41,12.90
2013,03,26,17,42,12.90
2013,03,26,17,43,12.90
2013,03,26,17,44,12.90
2013,03,26,17,45,12.90
2013,03,26,17,46,12.90
2013,03,26,17,47,12.90
2013,03,26,17,48,12.90
2013,03,26,17,49,12.90